Wind_Speed
50 49 49 48 47 45 42 38 35 33 33 33 33 33 34 34 35 35 36 38 40 41 43 44 45 46 48 48 49 50 51 52 52 53 53 53 53 52 53 53 55 60 62 57 51 51 54 52 48 48 48 47 48 48 46 45 44 43 42 41 39 38 38
48 48 47 47 45 41 37 34 33 33 34 33 33 34 34 35 35 36 36 37 39 41 42 43 44 46 47 48 48 49 50 50 50 51 52 51 51 51 51 51 53 56 59 57 51 48 50 50 47 47 47 46 47 47 45 45 44 43 43 43 41 39 38
47 47 46 44 41 37 34 33 33 34 34 33 34 35 35 35 36 36 37 37 39 41 42 43 44 45 47 48 48 48 48 49 49 49 50 49 49 49 49 48 50 52 55 56 52 48 48 49 47 47 47 46 46 46 45 44 43 43 43 43 42 40 38
47 46 44 41 36 33 32 33 34 35 35 34 35 36 36 36 36 37 37 38 39 41 42 43 44 45 47 47 48 47 47 48 48 48 48 48 48 48 48 47 47 49 51 54 53 48 46 47 47 46 46 46 46 45 45 44 43 43 42 42 42 40 38
46 44 40 36 33 32 33 33 34 35 35 35 36 37 36 37 37 37 37 38 39 41 42 43 43 44 46 47 47 47 46 46 47 47 47 47 47 46 46 45 46 47 48 50 52 49 46 45 45 45 45 45 46 46 45 44 43 42 42 42 41 40 38
43 39 36 33 32 32 33 34 34 36 36 36 37 37 37 37 37 37 37 38 40 41 42 43 43 43 45 46 47 47 47 47 47 47 46 46 47 46 45 44 43 44 46 47 49 49 47 45 44 44 43 43 44 45 45 45 44 42 41 40 40 39 37
38 34 32 31 32 33 33 34 35 37 38 37 38 38 37 37 38 38 38 38 39 40 41 42 43 43 44 45 47 47 48 47 47 47 46 46 46 46 46 45 43 42 43 44 46 47 47 46 43 42 42 42 42 43 44 45 46 44 40 38 39 39 37
33 31 31 32 33 33 33 34 36 38 39 38 39 39 38 38 39 39 39 38 38 38 40 41 42 43 44 45 47 47 48 48 48 48 47 46 46 47 46 46 45 43 43 43 44 44 45 46 44 42 42 42 42 42 43 43 45 46 42 39 37 37 36
30 30 31 32 33 33 33 34 37 39 40 40 40 40 39 38 39 39 39 39 39 39 40 42 43 43 44 46 47 47 47 47 47 48 48 47 47 47 47 46 45 45 44 44 43 43 43 44 44 42 42 42 42 42 43 43 44 45 43 40 37 35 35
30 30 32 33 33 32 33 35 38 40 41 41 42 41 41 39 38 39 40 40 40 41 41 42 44 44 45 46 47 48 47 47 47 47 47 47 47 47 47 47 46 45 45 45 45 43 42 42 42 42 42 43 42 43 44 44 44 45 43 40 38 35 32
30 31 32 33 33 32 33 35 38 41 41 41 42 43 43 42 41 41 41 42 43 43 43 44 44 44 45 46 47 48 48 47 46 46 45 45 46 46 46 47 47 46 45 46 46 45 43 42 42 41 41 43 44 44 44 43 44 45 43 39 38 36 32
30 31 32 33 33 33 33 35 38 41 42 42 42 43 44 43 43 42 42 43 43 44 45 45 45 44 45 47 48 49 49 49 48 46 45 45 44 44 45 46 46 47 46 46 47 47 44 43 43 42 41 42 45 46 45 43 44 44 42 39 38 37 34
31 31 32 33 33 33 33 35 39 42 43 43 43 43 44 43 43 43 42 42 43 43 44 45 46 46 45 46 48 50 51 51 50 48 46 45 44 43 43 44 44 45 46 47 48 48 46 43 43 44 41 41 44 46 46 45 44 43 41 40 38 37 35
30 31 32 34 34 34 34 35 39 42 43 44 44 45 45 44 43 43 42 42 42 43 44 44 45 46 46 46 48 50 52 53 53 51 49 46 45 44 43 43 43 42 44 46 47 47 46 43 43 45 43 41 42 44 46 47 46 43 42 41 39 37 35
30 30 31 34 35 35 34 35 38 41 43 44 45 47 47 46 45 44 43 43 43 43 44 44 45 46 47 47 47 49 51 54 54 53 51 49 47 46 44 42 41 41 43 44 45 46 45 44 44 44 44 42 42 43 46 47 46 44 43 43 41 37 34
30 31 32 33 36 36 35 35 38 41 43 44 46 48 49 49 48 47 46 45 45 46 46 45 46 48 48 48 47 48 50 53 55 55 54 52 50 49 47 44 42 42 43 43 43 44 43 43 43 44 44 43 42 43 46 47 46 43 43 44 42 37 34
30 32 33 34 36 37 36 34 37 41 43 44 46 49 51 51 51 50 50 49 49 50 49 48 48 49 50 49 48 48 50 52 55 56 55 54 53 52 50 46 44 44 43 41 41 42 42 42 42 43 44 43 42 43 45 49 48 45 44 45 43 39 37
31 32 34 35 36 37 37 36 36 40 43 44 46 50 52 53 53 54 53 53 53 53 52 52 51 50 51 52 50 50 51 52 54 56 56 56 56 55 52 48 47 48 46 41 39 39 39 40 40 40 41 41 41 41 43 47 48 47 47 46 44 41 40
33 33 34 36 36 36 38 38 37 39 43 44 46 50 53 55 56 57 57 57 58 57 56 55 55 54 54 54 54 53 53 52 53 55 56 57 57 57 54 51 51 52 50 45 41 38 38 38 38 38 39 38 37 39 41 44 46 47 47 47 44 42 42
35 34 34 35 36 36 38 40 40 40 43 46 48 51 55 57 58 59 61 61 61 60 60 59 58 57 57 57 57 56 55 54 53 54 55 56 57 57 55 55 55 55 53 49 45 40 38 37 36 36 37 36 36 37 39 42 45 46 46 45 43 41 42
36 35 33 34 35 37 38 41 42 42 44 47 49 51 55 57 59 60 63 64 63 63 62 62 61 60 59 59 59 58 58 56 54 55 55 54 54 55 55 56 57 57 56 53 49 44 40 38 36 36 35 36 36 37 38 41 43 43 43 42 41 40 40
37 36 35 34 35 37 38 40 42 44 45 47 50 52 54 56 58 60 63 64 64 63 63 62 62 61 60 60 60 59 59 58 56 55 54 53 52 52 53 55 57 57 57 56 54 49 44 40 38 36 36 36 37 37 38 39 40 41 41 40 39 38 38
38 38 37 35 36 37 39 41 43 44 46 48 51 52 54 55 57 59 61 63 64 63 63 62 61 61 60 59 59 58 58 57 56 55 54 52 51 51 51 53 54 55 56 57 56 53 48 43 40 38 37 36 37 38 38 37 38 39 40 40 38 36 36
38 39 39 39 38 38 39 42 44 46 48 50 53 54 55 56 58 59 60 62 62 62 61 61 60 60 59 58 58 57 57 56 56 54 53 52 50 50 50 51 51 52 54 55 55 54 51 46 42 39 38 38 38 38 38 37 37 38 39 39 38 35 34
39 40 41 42 42 42 41 43 46 49 51 53 55 56 56 57 58 58 59 60 60 59 59 59 59 59 58 57 57 56 56 55 54 53 52 50 49 49 49 49 49 50 51 53 54 54 53 49 44 41 39 38 38 38 37 37 36 37 37 38 38 36 33
40 42 43 44 45 46 46 47 48 51 53 55 56 57 56 56 55 55 55 56 56 56 56 56 56 56 55 55 54 54 54 54 53 52 50 48 47 47 46 46 46 47 49 51 52 52 53 52 48 43 39 38 38 37 37 36 36 36 36 36 37 36 33
41 43 45 47 48 49 50 50 50 52 54 55 55 55 54 53 53 53 53 53 53 54 54 54 53 52 52 50 49 49 48 49 49 48 48 47 45 44 44 43 42 42 44 47 49 50 51 52 51 46 41 38 38 37 36 36 36 36 35 35 36 35 32
43 45 48 50 51 52 52 51 51 52 52 52 52 52 51 51 51 51 51 51 52 53 53 52 52 51 51 50 48 47 45 45 45 44 44 44 43 42 42 41 40 39 40 42 44 47 48 50 51 50 44 39 38 37 36 36 37 36 35 34 35 34 31
44 46 49 51 51 53 54 53 51 50 50 49 49 49 48 48 48 49 50 51 52 53 52 52 51 51 50 50 49 48 46 45 45 44 43 43 42 41 40 39 38 38 38 38 40 43 45 46 48 49 46 41 38 37 36 36 36 36 35 34 34 33 31
46 47 50 51 51 51 52 52 51 49 47 46 45 45 45 45 46 47 49 50 51 51 51 51 50 50 49 49 48 47 46 45 45 44 43 42 42 41 40 39 38 37 37 37 38 39 41 43 44 46 46 43 39 36 36 36 36 35 35 34 33 32 31
45 46 49 51 52 51 49 49 48 46 45 44 43 43 43 43 44 46 47 48 49 49 49 49 48 48 47 47 46 46 45 44 43 43 42 42 41 40 39 39 38 37 36 36 36 37 38 39 40 42 43 42 39 36 35 35 35 34 34 34 33 32 30
44 45 47 49 50 50 48 45 44 43 42 42 42 42 42 43 43 44 45 46 47 47 47 47 47 47 46 45 45 44 44 43 43 42 41 41 40 39 39 38 38 37 36 35 35 35 35 36 36 38 39 40 39 36 34 34 34 34 34 33 33 31 30
44 45 46 46 46 45 44 42 41 40 40 40 41 42 42 42 42 42 43 44 46 46 46 46 46 45 45 44 43 43 43 43 42 42 41 40 40 39 39 38 38 37 37 35 34 34 33 33 34 35 36 37 37 36 34 33 33 33 33 33 32 31 30
39 42 43 43 42 41 40 39 39 38 39 39 40 41 41 41 41 41 42 43 44 45 45 45 44 44 44 43 43 42 42 43 42 42 41 41 40 39 39 39 38 37 37 36 34 33 32 32 32 33 34 35 35 35 34 32 32 33 33 33 32 31 31
36 36 37 38 38 37 37 37 37 37 37 38 39 40 40 41 41 41 41 42 43 44 44 44 44 44 43 43 43 43 43 43 43 43 42 42 41 40 39 39 39 38 37 36 34 33 32 31 31 31 32 33 34 34 33 32 32 32 33 32 32 31 31
36 34 33 34 35 35 34 34 35 36 36 38 39 40 40 41 41 42 42 42 43 43 44 44 44 44 44 44 44 44 44 44 44 44 44 43 42 41 40 39 39 38 38 37 35 33 32 31 31 31 31 32 32 33 32 32 31 32 32 32 32 31 31
Wind_Direction
314 314 314 314 314 313 312 311 311 311 312 314 317 319 321 323 326 328 328 329 329 330 331 333 333 333 333 334 336 337 336 337 336 334 331 328 322 317 312 308 304 303 303 305 306 304 303 304 303 299 299 297 295 295 295 294 292 289 285 281 278 275 274
314 314 314 314 313 312 310 310 311 312 313 315 317 319 322 324 327 328 330 330 330 330 331 332 332 332 332 333 334 335 335 336 336 335 333 330 325 320 315 310 306 304 304 304 306 305 303 303 303 300 299 298 296 296 296 294 293 290 286 282 279 276 275
314 314 313 313 312 310 309 310 312 312 313 316 318 320 323 325 327 329 330 331 330 330 330 331 332 331 331 331 332 333 334 334 334 334 333 332 328 323 319 313 308 304 303 303 305 306 304 303 303 301 300 299 298 297 297 295 293 291 287 284 281 278 276
314 313 312 311 310 309 310 311 312 312 313 317 318 320 323 325 327 329 330 331 330 329 329 330 331 331 330 330 331 331 331 332 332 333 334 333 330 327 322 317 311 306 303 303 304 306 306 304 303 303 302 301 299 298 297 296 295 292 289 286 284 280 277
313 312 311 309 308 309 311 312 312 312 314 317 318 320 323 325 327 328 330 330 329 328 328 329 330 330 328 328 328 329 329 330 331 332 333 333 331 328 325 320 315 309 305 302 303 304 305 304 303 302 302 302 301 298 296 295 294 293 291 289 286 283 279
311 310 308 307 308 310 312 312 312 312 314 317 318 320 323 325 326 328 329 329 329 328 327 327 328 328 326 325 325 327 328 329 330 330 332 332 330 329 327 323 319 313 307 303 302 303 304 304 304 303 302 302 300 299 297 295 293 291 291 291 289 284 280
309 307 306 307 309 311 312 312 312 312 314 316 318 320 323 325 326 327 328 329 329 327 325 324 325 325 324 324 324 326 327 328 329 329 330 330 329 329 328 326 323 317 312 307 303 302 302 303 304 304 302 301 299 298 298 296 294 292 291 291 290 287 283
307 306 306 308 310 312 313 313 312 312 314 316 318 320 323 325 326 327 327 327 327 325 323 322 323 324 324 324 324 325 326 327 327 328 329 329 328 328 327 326 325 321 317 312 306 304 302 302 303 304 302 300 299 297 297 296 294 293 292 291 290 288 286
306 305 307 308 310 312 313 313 312 312 314 317 318 320 322 324 325 325 324 325 325 324 323 322 323 324 324 324 324 324 325 326 326 326 327 327 326 326 326 325 325 323 320 316 312 308 305 302 302 302 301 299 298 297 295 294 294 293 293 293 292 291 289
306 306 307 308 310 312 313 313 312 312 315 317 318 320 321 322 323 323 323 324 325 325 324 323 324 324 324 324 323 323 324 324 324 324 325 325 324 324 324 323 323 323 321 318 315 313 309 306 303 301 300 298 297 296 294 294 293 293 294 295 293 291 289
306 307 307 308 309 311 313 314 312 312 315 316 318 320 320 322 323 324 324 325 325 325 324 323 324 324 323 323 322 321 322 322 322 323 323 322 322 322 321 321 321 321 320 318 316 315 314 311 306 302 299 297 296 295 294 294 294 294 295 296 295 290 288
306 306 307 307 309 311 314 314 313 312 314 316 317 318 319 321 323 323 324 325 325 324 323 322 323 323 322 322 320 319 319 319 319 320 321 320 320 319 319 318 318 319 318 316 315 316 316 315 310 305 301 299 296 295 294 294 293 293 294 296 295 291 289
305 307 307 307 309 312 314 314 313 312 313 315 316 317 317 319 321 322 323 324 324 323 322 321 321 321 321 320 318 318 317 317 317 318 318 318 318 317 316 316 316 315 314 313 313 315 317 316 311 307 305 301 298 296 295 294 293 293 294 294 294 292 291
306 307 307 307 309 312 314 315 313 312 313 314 315 315 316 318 320 321 322 322 322 320 320 320 319 319 319 318 317 316 315 314 315 315 316 316 315 315 314 314 314 312 310 310 311 313 315 315 311 308 307 305 301 298 296 294 293 294 294 293 292 291 292
306 307 307 308 309 311 315 316 313 311 312 314 315 315 315 317 318 319 320 321 320 319 319 319 318 317 317 316 316 314 313 312 312 313 314 314 313 312 312 312 312 309 306 307 309 310 312 313 311 308 307 305 302 299 296 294 293 294 294 292 291 291 291
307 307 307 308 309 311 315 316 313 312 313 314 314 314 315 316 318 318 319 320 319 319 319 319 318 317 315 315 314 312 310 310 310 310 311 312 311 310 310 311 310 306 304 306 307 307 308 309 309 307 305 305 303 300 298 297 295 295 294 292 292 293 293
307 308 308 309 311 312 314 315 314 312 313 314 314 314 314 316 317 318 319 319 319 318 318 318 317 315 314 313 312 310 309 308 308 309 310 310 309 308 309 311 307 302 302 305 305 305 305 305 306 306 305 305 304 301 300 299 299 299 296 294 294 295 295
308 309 309 311 312 313 314 315 315 313 314 314 314 313 314 315 316 317 318 318 317 318 318 317 317 315 313 313 312 310 309 308 307 307 308 308 307 307 308 308 304 301 302 303 303 303 302 302 302 302 302 302 301 299 297 296 297 298 297 296 296 296 294
307 309 311 312 314 315 315 315 316 315 314 314 314 314 314 314 316 317 317 317 317 318 318 318 317 316 314 314 312 311 310 308 307 307 307 306 306 307 308 306 302 301 302 303 303 302 300 299 298 298 299 299 297 294 292 292 293 294 294 296 297 296 293
307 309 313 315 316 317 316 315 316 316 315 314 314 314 313 315 317 317 317 317 317 318 318 318 317 316 315 314 313 312 311 309 308 306 306 305 306 306 306 303 301 301 302 302 302 301 299 298 297 296 295 295 293 291 288 289 290 292 293 294 295 295 292
308 311 315 317 316 316 316 315 316 316 315 314 314 313 313 314 316 316 316 316 317 318 318 318 317 316 316 315 314 313 312 311 309 307 306 305 305 304 303 301 301 301 301 302 302 301 299 298 297 296 294 292 291 290 288 288 290 292 292 293 293 292 291
311 314 317 318 316 316 316 315 315 315 314 313 311 310 311 313 314 314 315 316 317 318 318 318 318 317 316 316 315 314 313 312 310 308 307 306 304 302 301 299 299 300 301 301 301 300 299 299 298 296 294 292 290 289 289 290 292 292 291 291 292 292 291
313 315 316 317 316 316 315 314 313 312 311 310 309 310 311 313 313 314 315 316 317 318 318 319 318 318 318 318 317 316 314 313 311 309 308 306 303 301 299 297 297 297 298 298 298 298 298 299 298 296 295 292 290 289 289 291 292 292 291 291 291 291 291
314 315 316 316 315 315 315 313 312 312 311 310 311 312 314 315 316 317 317 317 318 319 319 319 320 320 320 320 319 318 316 314 313 311 309 307 304 301 298 297 296 295 294 294 294 295 296 296 296 295 293 292 290 290 289 289 290 290 291 292 292 291 290
315 315 316 315 315 315 315 314 314 314 314 314 315 317 318 318 319 319 318 318 319 320 320 321 321 322 322 321 320 319 318 316 315 313 312 310 307 304 301 299 297 296 294 293 293 293 294 294 293 292 292 291 290 290 289 288 288 287 289 290 291 291 291
315 315 315 314 315 316 317 317 317 317 317 318 319 320 321 321 320 320 319 319 320 320 321 322 322 323 322 322 321 320 319 318 317 316 314 313 310 307 305 302 299 298 296 294 293 292 292 292 291 291 291 290 289 289 289 289 287 285 286 288 289 291 292
316 316 315 315 317 318 318 320 320 319 319 320 321 321 322 322 322 321 322 322 322 322 323 324 324 324 323 323 322 321 320 319 318 317 317 316 314 312 310 306 303 300 297 295 293 292 290 290 290 290 290 289 288 288 288 288 286 284 284 285 287 290 292
316 317 316 317 319 319 319 321 322 321 321 322 322 322 322 323 324 324 325 325 325 325 326 326 325 325 325 325 325 325 324 322 321 320 320 319 318 317 314 312 308 304 300 296 293 291 289 288 288 288 288 287 286 285 286 285 285 284 284 284 285 288 291
317 317 317 318 319 320 320 322 323 323 324 324 323 322 323 325 327 327 327 327 326 326 327 326 326 327 327 327 328 328 327 326 324 324 323 322 321 320 318 315 312 309 304 299 295 291 289 288 286 286 286 285 283 283 282 282 283 284 284 284 284 286 288
317 318 317 318 319 320 320 322 324 324 324 324 323 324 326 328 329 329 328 327 326 327 328 327 327 328 329 329 329 329 329 328 327 326 326 325 325 324 322 319 316 312 307 303 299 295 292 290 287 285 284 283 282 280 279 279 280 282 283 283 283 284 285
317 318 318 319 320 320 321 322 323 324 324 325 326 327 329 330 330 328 327 327 327 328 329 328 328 329 330 330 331 331 330 330 329 329 329 329 328 327 326 323 320 316 312 307 304 300 296 292 290 286 284 282 281 278 276 275 277 279 280 281 281 282 282
319 319 319 319 319 319 321 323 324 325 325 326 327 329 329 330 329 328 328 328 329 330 330 329 329 330 331 332 332 332 331 331 331 331 331 331 330 330 329 327 324 321 318 313 309 305 300 296 293 289 285 282 280 277 273 272 272 275 277 278 279 279 279
320 320 319 318 318 318 321 324 326 326 326 327 328 328 328 329 329 329 329 330 330 331 331 330 330 331 331 332 332 332 332 331 332 332 331 331 331 330 330 329 327 324 321 318 314 310 305 301 296 291 287 284 281 278 273 269 268 270 272 274 276 277 277
320 319 317 316 318 321 324 327 327 327 327 327 327 326 327 329 330 331 331 331 331 332 331 331 331 331 331 332 332 331 331 330 330 331 330 330 330 330 329 328 327 325 323 320 317 314 310 305 300 295 291 287 284 280 275 270 266 265 267 270 272 274 274
321 319 317 317 320 324 327 327 327 326 326 325 325 326 328 331 333 333 333 333 332 332 332 332 331 331 331 331 330 330 329 328 328 328 329 329 329 329 328 327 326 325 323 321 319 317 314 310 305 301 296 292 288 284 279 273 267 264 264 267 269 271 272
325 324 323 323 324 326 328 327 325 325 325 325 326 327 329 331 333 334 334 334 333 333 333 332 331 331 330 330 329 328 328 327 326 326 326 326 326 327 327 326 325 324 323 321 319 317 315 312 309 306 302 298 295 290 284 278 271 265 263 263 266 268 269
Height
3020 3017 3014 3011 3008 3004 3002 2999 2996 2994 2992 2989 2986 2983 2980 2976 2973 2969 2965 2961 2957 2953 2950 2946 2943 2938 2934 2930 2925 2922 2917 2912 2907 2902 2898 2893 2888 2885 2880 2876 2871 2861 2855 2858 2861 2858 2851 2851 2855 2852 2849 2848 2845 2843 2843 2841 2841 2840 2839 2838 2839 2840 2839
3015 3012 3009 3006 3003 3000 2997 2995 2992 2989 2987 2985 2981 2978 2975 2972 2968 2965 2961 2957 2953 2949 2945 2942 2939 2934 2930 2925 2922 2918 2913 2909 2905 2899 2894 2891 2885 2881 2877 2873 2868 2861 2853 2851 2854 2854 2849 2847 2849 2846 2843 2842 2840 2838 2837 2836 2835 2834 2833 2832 2832 2833 2833
3010 3007 3004 3001 2998 2995 2993 2990 2988 2985 2982 2980 2977 2974 2971 2967 2964 2960 2957 2953 2948 2945 2941 2938 2934 2930 2925 2921 2917 2914 2910 2905 2901 2897 2891 2887 2883 2877 2873 2870 2865 2859 2852 2846 2847 2849 2845 2843 2843 2841 2838 2837 2835 2833 2832 2830 2829 2829 2827 2825 2825 2826 2827
3005 3002 2999 2997 2994 2991 2989 2986 2983 2980 2977 2975 2972 2969 2966 2963 2960 2956 2952 2948 2944 2941 2937 2933 2930 2925 2921 2918 2913 2910 2907 2902 2898 2894 2889 2883 2879 2874 2869 2866 2861 2856 2850 2844 2841 2843 2842 2839 2837 2836 2834 2831 2830 2828 2827 2825 2824 2822 2821 2820 2819 2819 2821
3001 2998 2995 2992 2990 2987 2984 2981 2978 2975 2973 2971 2967 2964 2962 2958 2955 2952 2948 2945 2941 2937 2933 2929 2925 2922 2917 2914 2910 2907 2903 2899 2894 2890 2886 2881 2876 2871 2866 2862 2858 2853 2848 2843 2838 2837 2837 2835 2833 2831 2829 2827 2824 2822 2821 2820 2818 2817 2815 2814 2814 2813 2814
2996 2993 2991 2988 2985 2983 2980 2977 2974 2971 2969 2966 2964 2960 2958 2954 2951 2948 2944 2941 2937 2932 2929 2925 2922 2919 2915 2911 2907 2903 2899 2895 2891 2886 2883 2878 2873 2868 2864 2859 2855 2850 2845 2841 2836 2833 2832 2831 2829 2826 2825 2823 2820 2816 2814 2813 2812 2812 2811 2809 2808 2808 2808
2992 2989 2986 2984 2981 2979 2976 2973 2970 2967 2964 2962 2959 2956 2953 2950 2947 2944 2940 2937 2934 2930 2926 2923 2920 2916 2913 2908 2903 2899 2894 2890 2886 2882 2879 2875 2869 2865 2860 2856 2852 2847 2842 2838 2834 2831 2828 2826 2825 2823 2819 2817 2815 2812 2809 2807 2804 2805 2806 2805 2803 2802 2802
2988 2985 2983 2980 2978 2975 2973 2970 2966 2963 2960 2958 2955 2951 2948 2945 2942 2939 2936 2933 2931 2928 2924 2920 2917 2912 2908 2903 2898 2894 2890 2886 2882 2878 2874 2870 2866 2861 2856 2852 2848 2844 2839 2834 2830 2828 2825 2822 2820 2819 2815 2812 2810 2807 2805 2802 2799 2798 2799 2800 2799 2798 2797
2984 2982 2979 2976 2974 2972 2969 2966 2962 2958 2956 2953 2950 2947 2944 2941 2939 2935 2933 2930 2927 2925 2921 2916 2912 2908 2903 2898 2894 2890 2886 2882 2878 2874 2869 2866 2861 2857 2852 2848 2844 2840 2835 2831 2827 2824 2821 2818 2816 2815 2811 2808 2806 2802 2800 2798 2795 2793 2793 2794 2794 2795 2793
2980 2978 2976 2973 2971 2969 2966 2963 2958 2954 2952 2948 2944 2941 2938 2937 2935 2932 2929 2926 2922 2919 2915 2911 2907 2902 2898 2894 2889 2885 2882 2879 2875 2871 2867 2862 2858 2853 2848 2843 2840 2837 2832 2827 2823 2820 2817 2814 2811 2810 2807 2804 2801 2798 2795 2793 2790 2788 2788 2789 2789 2790 2790
2977 2974 2972 2969 2968 2966 2963 2960 2955 2950 2947 2944 2940 2936 2933 2930 2929 2926 2923 2919 2916 2912 2909 2905 2902 2898 2894 2890 2885 2881 2878 2874 2871 2867 2864 2860 2855 2850 2845 2840 2835 2832 2828 2824 2819 2816 2814 2810 2807 2805 2803 2800 2796 2793 2790 2788 2786 2783 2783 2784 2783 2783 2785
2973 2971 2969 2966 2964 2962 2960 2956 2951 2946 2943 2940 2937 2933 2929 2926 2924 2921 2918 2915 2911 2907 2903 2899 2896 2893 2890 2886 2881 2876 2873 2869 2867 2864 2860 2856 2852 2848 2843 2838 2832 2827 2823 2819 2814 2811 2810 2807 2802 2799 2799 2796 2791 2787 2786 2784 2782 2780 2779 2779 2778 2776 2778
2970 2968 2965 2962 2960 2959 2957 2953 2947 2943 2939 2936 2933 2929 2926 2923 2921 2918 2915 2912 2907 2903 2899 2895 2891 2888 2886 2882 2877 2872 2868 2864 2861 2858 2856 2853 2849 2845 2841 2836 2831 2825 2820 2815 2810 2807 2806 2804 2799 2794 2794 2792 2787 2783 2780 2778 2777 2776 2775 2774 2773 2772 2772
2967 2965 2962 2959 2957 2955 2953 2950 2944 2939 2935 2931 2928 2925 2922 2920 2917 2915 2912 2908 2904 2900 2896 2892 2888 2884 2881 2878 2873 2868 2862 2858 2855 2852 2850 2848 2844 2841 2837 2833 2828 2823 2817 2812 2807 2803 2801 2799 2795 2790 2788 2787 2783 2779 2775 2772 2771 2771 2770 2768 2768 2768 2768
2963 2962 2959 2955 2953 2951 2950 2946 2941 2935 2931 2927 2923 2919 2917 2915 2913 2910 2907 2905 2901 2897 2893 2889 2885 2880 2877 2873 2869 2864 2858 2853 2849 2846 2844 2841 2839 2836 2833 2829 2825 2820 2814 2810 2805 2801 2797 2794 2791 2786 2783 2781 2779 2775 2771 2767 2766 2766 2764 2762 2762 2763 2764
2960 2958 2955 2952 2949 2946 2945 2943 2937 2931 2927 2923 2919 2914 2911 2909 2906 2904 2902 2900 2896 2892 2889 2886 2881 2876 2872 2868 2865 2860 2854 2848 2843 2839 2837 2834 2832 2829 2826 2824 2821 2815 2810 2806 2802 2798 2794 2791 2787 2783 2779 2777 2775 2770 2765 2762 2761 2762 2759 2756 2756 2758 2759
2956 2953 2951 2949 2945 2942 2940 2939 2934 2928 2923 2920 2915 2909 2905 2902 2900 2897 2895 2893 2890 2887 2884 2881 2877 2872 2866 2863 2860 2855 2850 2844 2837 2833 2830 2827 2824 2821 2820 2818 2814 2809 2806 2804 2799 2795 2791 2787 2784 2779 2775 2773 2770 2766 2761 2756 2754 2756 2754 2751 2750 2752 2752
2952 2950 2946 2944 2942 2938 2935 2934 2931 2925 2919 2916 2911 2904 2900 2896 2893 2890 2888 2886 2883 2880 2877 2874 2871 2866 2861 2856 2853 2849 2845 2839 2833 2827 2823 2819 2816 2813 2812 2811 2806 2801 2800 2799 2796 2792 2788 2784 2781 2777 2773 2770 2767 2763 2759 2753 2750 2750 2749 2747 2747 2747 2746
2948 2946 2943 2940 2937 2934 2929 2927 2926 2921 2915 2911 2907 2900 2894 2890 2887 2884 2881 2878 2875 2872 2870 2866 2863 2859 2855 2850 2846 2842 2838 2834 2828 2822 2817 2813 2808 2805 2804 2802 2797 2793 2792 2791 2790 2788 2784 2781 2778 2774 2771 2768 2765 2761 2757 2752 2748 2746 2744 2743 2743 2743 2741
2943 2942 2940 2936 2932 2929 2925 2921 2919 2917 2912 2906 2902 2896 2890 2885 2882 2877 2873 2870 2867 2864 2861 2859 2855 2852 2848 2843 2839 2835 2831 2828 2823 2817 2811 2807 2802 2798 2796 2792 2788 2785 2784 2783 2782 2781 2779 2776 2773 2770 2767 2764 2761 2758 2754 2749 2746 2743 2741 2739 2739 2739 2736
2939 2937 2936 2933 2928 2925 2921 2917 2913 2911 2907 2902 2897 2892 2886 2881 2877 2873 2867 2862 2860 2857 2854 2850 2847 2844 2840 2836 2831 2827 2823 2820 2817 2811 2806 2802 2797 2793 2789 2784 2779 2777 2775 2774 2773 2773 2771 2770 2767 2765 2762 2759 2756 2753 2750 2746 2743 2740 2738 2736 2735 2734 2732
2934 2931 2930 2929 2925 2921 2917 2913 2909 2905 2902 2898 2893 2888 2884 2878 2874 2869 2862 2856 2853 2850 2847 2843 2839 2835 2832 2828 2823 2819 2815 2812 2808 2804 2799 2796 2791 2787 2782 2777 2772 2769 2767 2764 2763 2763 2763 2763 2761 2758 2756 2753 2750 2748 2745 2742 2740 2737 2734 2731 2730 2729 2728
2929 2926 2924 2923 2921 2918 2914 2910 2906 2902 2898 2893 2888 2884 2880 2875 2870 2865 2858 2852 2847 2843 2839 2835 2831 2827 2824 2820 2816 2811 2807 2803 2799 2796 2792 2789 2785 2780 2776 2771 2767 2763 2760 2757 2755 2754 2754 2754 2753 2751 2749 2747 2744 2741 2739 2738 2735 2732 2729 2727 2726 2725 2724
2924 2921 2919 2917 2915 2914 2911 2906 2901 2897 2893 2888 2882 2878 2875 2870 2865 2860 2853 2846 2841 2837 2832 2828 2824 2820 2816 2812 2807 2803 2798 2794 2790 2787 2783 2780 2777 2773 2769 2764 2760 2757 2753 2750 2747 2746 2746 2746 2746 2744 2743 2741 2738 2736 2734 2733 2730 2728 2725 2722 2721 2720 2719
2920 2916 2913 2910 2908 2907 2905 2902 2896 2891 2886 2881 2876 2872 2868 2863 2858 2853 2848 2841 2836 2831 2826 2822 2817 2813 2809 2804 2800 2795 2791 2787 2783 2779 2776 2772 2769 2764 2761 2757 2753 2750 2746 2742 2740 2738 2737 2737 2738 2738 2736 2735 2733 2731 2729 2727 2725 2723 2721 2718 2716 2715 2715
2915 2911 2908 2905 2902 2899 2897 2895 2891 2885 2879 2874 2869 2864 2861 2857 2852 2848 2842 2837 2831 2827 2822 2817 2813 2809 2804 2799 2794 2790 2785 2780 2776 2772 2768 2765 2761 2757 2754 2750 2746 2743 2739 2735 2733 2731 2729 2728 2729 2730 2730 2728 2727 2725 2724 2722 2720 2718 2717 2715 2712 2711 2711
2910 2906 2902 2898 2896 2892 2889 2887 2884 2878 2873 2868 2863 2859 2854 2850 2846 2841 2837 2832 2827 2822 2818 2814 2809 2805 2800 2796 2792 2787 2782 2776 2772 2767 2762 2759 2755 2751 2747 2744 2741 2737 2733 2729 2726 2724 2721 2720 2720 2722 2723 2722 2720 2719 2719 2717 2714 2713 2712 2711 2708 2707 2707
2905 2901 2896 2892 2889 2885 2882 2880 2878 2873 2868 2863 2858 2853 2849 2845 2840 2835 2831 2826 2821 2817 2813 2809 2804 2800 2795 2790 2786 2782 2777 2772 2767 2763 2758 2753 2749 2745 2741 2738 2734 2731 2728 2724 2721 2717 2715 2714 2712 2713 2715 2716 2714 2713 2712 2711 2709 2707 2707 2706 2704 2703 2703
2901 2897 2891 2887 2884 2879 2873 2872 2871 2867 2863 2858 2853 2848 2844 2840 2835 2830 2826 2821 2817 2812 2808 2804 2799 2794 2789 2784 2779 2775 2771 2766 2762 2757 2753 2749 2745 2741 2737 2733 2729 2726 2722 2719 2716 2712 2710 2708 2706 2705 2706 2708 2707 2707 2706 2705 2703 2702 2701 2700 2699 2699 2698
2897 2893 2887 2882 2880 2876 2870 2866 2863 2861 2857 2853 2849 2845 2841 2837 2832 2827 2822 2817 2812 2808 2803 2798 2793 2789 2785 2779 2775 2770 2766 2761 2757 2753 2748 2745 2740 2736 2732 2728 2725 2721 2717 2714 2711 2708 2705 2703 2701 2699 2699 2700 2700 2701 2700 2699 2698 2697 2696 2695 2694 2694 2694
2893 2888 2883 2877 2873 2870 2868 2864 2860 2856 2852 2848 2844 2840 2837 2833 2829 2824 2819 2813 2808 2804 2799 2794 2790 2785 2781 2776 2771 2766 2762 2757 2753 2749 2745 2741 2737 2733 2729 2724 2720 2716 2713 2709 2706 2703 2700 2698 2696 2694 2692 2692 2693 2694 2694 2693 2692 2691 2691 2690 2689 2689 2689
2889 2884 2880 2875 2869 2865 2862 2860 2856 2851 2847 2843 2840 2836 2833 2829 2825 2820 2815 2810 2805 2800 2795 2790 2786 2781 2777 2772 2767 2763 2758 2754 2750 2746 2741 2737 2733 2729 2725 2721 2716 2712 2708 2705 2702 2699 2696 2693 2691 2689 2687 2686 2686 2686 2687 2687 2686 2686 2685 2684 2684 2684 2684
2884 2879 2874 2871 2867 2863 2859 2856 2852 2848 2843 2839 2836 2832 2829 2826 2822 2817 2812 2806 2801 2796 2791 2787 2782 2777 2773 2769 2764 2760 2755 2751 2746 2742 2738 2734 2730 2726 2722 2718 2713 2709 2705 2701 2698 2695 2692 2689 2686 2684 2682 2680 2680 2680 2680 2680 2680 2680 2679 2679 2679 2679 2679
2884 2877 2871 2866 2862 2859 2855 2852 2848 2844 2840 2836 2833 2829 2825 2822 2818 2813 2808 2803 2797 2793 2788 2783 2779 2774 2770 2765 2761 2757 2752 2748 2743 2739 2735 2731 2727 2723 2719 2715 2710 2706 2702 2698 2694 2691 2688 2685 2682 2680 2677 2676 2675 2674 2674 2674 2675 2674 2674 2674 2674 2673 2673
2881 2876 2870 2864 2859 2856 2853 2849 2845 2842 2838 2834 2830 2826 2822 2817 2813 2809 2804 2799 2794 2789 2785 2780 2775 2771 2767 2762 2758 2754 2749 2745 2740 2736 2732 2728 2724 2720 2716 2712 2707 2703 2699 2695 2692 2688 2685 2682 2679 2676 2674 2672 2670 2669 2669 2669 2669 2669 2669 2669 2669 2668 2668
2873 2870 2866 2861 2856 2853 2851 2847 2843 2839 2835 2831 2827 2822 2818 2813 2809 2804 2800 2795 2791 2786 2781 2777 2772 2768 2763 2759 2755 2750 2746 2741 2737 2733 2729 2724 2720 2717 2713 2709 2704 2700 2696 2692 2689 2685 2682 2679 2676 2673 2670 2668 2666 2665 2664 2663 2663 2663 2663 2664 2664 2663 2663